Weather in Uyelen

Russia / Chukotka Autonomous Okrug     66°09′36″N   169°49′03″W
temp.,
°C
wind,
m/s
gust,
m/s
humid.,
%
clouds,
%
prec.,
mm/h
press.,
hPa
HPBL,
m
27 february, sat
sat2700:00−31nnw111693100 0.1 1025371
03:00−31nnw1015100100 0.1 1024403
06:00−31nnw913100100 0.1 1024348
09:00−31nnw91296100 0.0 1023370
12:00−29nnw91293100 0.0 1023465
15:00−29nnw91393100 0.0 1021427
18:00−30nnw91396100 0.0 1020313
21:00−30nnw101496100 0.0 1019338
28 february, sun
sun2800:00−31nnw111595100 0.0 1019347
03:00−30nnw121796100 0.0 1018365
06:00−30nnw131994100 0.0 1017359
09:00−29nnw14209497 0.0 1017424
12:00−27nnw15209298 0.0 1018535
15:00−26nnw142191100 0.0 1019555
18:00−26nw142192100 0.1 1020523
21:00−27nw132092100 0.0 1021510
1 march, mon
mon100:00−27nw132091100 0.1 1023480
03:00−28nw121993100 0.0 1024427
06:00−28nw111694100 0.1 1023384
09:00−29nnw101596100 0.0 1022342
12:00−28nnw81296100 0.0 1020422
15:00−27nnw91297100 0.0 1015390
18:00−28nnw71198100 0.1 1012315
21:00−29nnw81098100 0.0 1008293
2 march, tue
tue200:00−30n71099100 0.1 1005250
03:00−31n68100100 0.0 1003165
06:00−31nnw91299100 0.0 1002293
09:00−30nnw101396100 0.0 1002392
12:00−28nnw111492100 0.0 1002529
15:00−29nnw121691100 0.0 1002581
18:00−29nnw131893100 0.0 1002647
21:00−29nnw141992100 0.1 1003678
3 march, wed
wed300:00−29nnw152090100 0.1 1004639
03:00−30nnw162295100 0.0 1006581
06:00−30nnw172394100 0.1 1008528
09:00−30nnw172393100 0.0 1010562
12:00−28nnw172391100 0.0 1012661
15:00−28nnw162292100 0.0 1015608
18:00−28nw152291100 0.1 1018539
21:00−28nw142190100 0.0 1020482